CYGFM03

导读

CYGFM03是美国发射的人造卫星,于2016年12月15日08:00成功进入太空。该卫星归属于美国卫星部署体系,服务于特定航天应用需求。作为2016年末美国航天发射任务的组成部分,它服役至今已近十年,持续在轨道运行,为美国相关领域的空间探测、通信或科研工作提供空间基础设施支持,是美国该批次航天发射任务的重要成果之一。

Basic Information
目录编号:
41891
目录名称:
CYGFM03
国际标识:
2016-078H
轨道中心:
EARTH
卫星名称:
CYGFM03
卫星全名:
--
卫星状态:
在轨 (已飞行3498 天)
发射日期:
2016-12-15 UTC
国别 :
美国 (US)
星等 :
--
Orbit Information
数据来源 国际轨道数据
星历时间: 2026-07-13T08:37:45+0800
1天前
查看轨道信息
半长轴: 6761.557km
偏心率: 0.000482
轨道倾角: 34.941°
近地点辐角 42.901°
升交点赤经 59.306°
平近点角 317.210°
近地点: 380.16km
远地点: 386.68km
周期: 92.221分钟
每日圈数: 15.614666
Detailed Information
使用方式:
暂无
2D Orbit Map
3D Orbit Map
Orbit Altitude Analysis Chart
Orbit Inclination Analysis Chart
Orbit Comprehensive Analysis Chart
View Comprehensive Chart